This is the latest recevied weather packets stored in our database for station/object WX9WTF. If no packets are shown the sender has not sent any weather packets the latest 10 day(s).
| Time | Temp. | Humidity | Pressure | Rain* | Wind** | Luminosity | Snow |
|---|---|---|---|---|---|---|---|
| 1777418152 | 13.89° C | 76% | 1014.3 hPa | 0 mm | - | 110 W/m² | - |
| 1777417849 | 13.89° C | 77% | 1014.1 hPa | 0 mm | - | 102 W/m² | - |
| 1777417544 | 13.89° C | 75% | 1014.6 hPa | 0 mm | - | 115 W/m² | - |
| 1777417241 | 13.89° C | 75% | 1014.2 hPa | 0 mm | - | 141 W/m² | - |
| 1777416937 | 13.89° C | 75% | 1014.2 hPa | 0 mm | - | 181 W/m² | - |
| 1777416632 | 13.89° C | 76% | 1014 hPa | 0 mm | - | 139 W/m² | - |
| 1777416328 | 13.89° C | 76% | 1014.2 hPa | 0 mm | - | 146 W/m² | - |
| 1777416027 | 13.89° C | 76% | 1014.1 hPa | 0 mm | - | 177 W/m² | - |
| 1777415723 | 13.89° C | 76% | 1014.3 hPa | 0 mm | - | 170 W/m² | - |
| 1777415420 | 13.89° C | 77% | 1014.3 hPa | 0 mm | - | 148 W/m² | - |
| 1777415119 | 13.89° C | 77% | 1014.4 hPa | 0 mm | - | 111 W/m² | - |
| 1777414815 | 13.89° C | 76% | 1014.3 hPa | 0 mm | - | 106 W/m² | - |
| 1777414510 | 14.44° C | 77% | 1014.7 hPa | 0 mm | - | 102 W/m² | - |
| 1777414209 | 14.44° C | 75% | 1014.3 hPa | 0 mm | - | 136 W/m² | - |
| 1777413905 | 15° C | 74% | 1014.2 hPa | 0 mm | - | 194 W/m² | - |
| 1777413600 | 14.44° C | 75% | 1014.4 hPa | 0 mm | - | 293 W/m² | - |
| 1777413297 | 14.44° C | 77% | 1014.3 hPa | 0 mm | - | 385 W/m² | - |
| 1777412993 | 13.89° C | 76% | 1014.6 hPa | 0 mm | - | 302 W/m² | - |
| 1777412691 | 13.89° C | 77% | 1014.3 hPa | 0 mm | - | 222 W/m² | - |
| 1777412389 | 13.89° C | 77% | 1014.6 hPa | 0 mm | - | 219 W/m² | - |
| 1777412084 | 13.89° C | 77% | 1014.3 hPa | 0 mm | - | 208 W/m² | - |
| 1777411779 | 13.89° C | 78% | 1014.3 hPa | 0 mm | - | 212 W/m² | - |
| 1777411479 | 13.89° C | 77% | 1014.4 hPa | 0 mm | - | 240 W/m² | - |
| 1777411178 | 13.89° C | 77% | 1014.3 hPa | 0 mm | - | 242 W/m² | - |
| 1777410874 | 13.89° C | 78% | 1014.6 hPa | 0 mm | - | 231 W/m² | - |
* Rain latest hour (hover to see other rain measurements)
** Current wind speed in m/s (hover to see current wind gust speed)